Domov               UVHVVR             MKGP            O straneh              
ZDRAVSTVENO VARSTVO RASTLIN
  MREŽA AGROMET. POSTAJ
 ► PROGNOSTIČNA OBVESTILA
AGROMETEOROLOŠKI PODATKI -
ARSO
OBVLADOVANJE TVEGANJ ZARADI
NEUGODNIH VREMENSKIH RAZMER
  ► NARAVNE NESREČE
  ► SUŠA/MOČA
  ► NAMAKANJE
  ► ŽLED (gozdarstvo)
KARTOGRAFSKI PRIKAZI
SPLETNE POVEZAVE
PROJEKTI IN PUBLIKACIJE

AGROMETEOROLOŠKA MREŽA: VREMENSKE POSTAJE IN FENOLOŠKA OPAZOVANJA

Pregled podatkov za lokacijo Selo, meteorološka postaja 37838

Pregled senzorjev na lokaciji

ID Ime Zadnja
vrednost
Datum
zadnje
spremembe
Tip
senzorja
4044 Omočenost lista (U) 2 U 16.12.2017 19:15 A730WET
4045 Padavine (mm) 0 mm 16.12.2017 19:15 Rain-O-Matic
4046 Temperatura 2 m (°C) 1,71 °C 16.12.2017 19:15 50YA
4047 Relativna vlaga 2 m (% RH) 92,6 % RH 16.12.2017 19:15 50YA

Pregled podatkov zadnjih 24 ur

Zap.
št.
Datum in čas Selo
Omočenost
lista
Padavine Relativna
vlaga
2
m
Temperatura
2
m
0 16.12.2017 19:30 2 0 92,6 1,71
1 16.12.2017 19:00 2 0 93,33 1,5
2 16.12.2017 18:30 2 0 90,54 1,64
3 16.12.2017 18:00 1 0 88,49 1,82
4 16.12.2017 17:30 1 0 84,81 2,45
5 16.12.2017 17:00 0,5 0 79,91 3,3
6 16.12.2017 16:30 0 0 78,94 3,71
7 16.12.2017 16:00 0 0 77,46 3,97
8 16.12.2017 15:30 0 0 75,58 4,08
9 16.12.2017 15:00 0 0 72,81 4,4
10 16.12.2017 14:30 0 0 74,07 4,68
11 16.12.2017 14:00 0 0 74,88 4,63
12 16.12.2017 13:30 0 0 79,06 4,57
13 16.12.2017 13:00 0 0 79,79 4,58
14 16.12.2017 12:30 0 0 81,12 4,11
15 16.12.2017 12:00 0 0 82,47 4,1
16 16.12.2017 11:30 0 0 90,48 3,54
17 16.12.2017 11:00 0 0 99,82 2,8
18 16.12.2017 10:30 0 0 99,93 2,53
19 16.12.2017 10:00 0 0,2 99,93 2,3
20 16.12.2017 09:30 1 0 99,93 2,2
21 16.12.2017 09:00 1,5 0 99,93 2,04
22 16.12.2017 08:30 4,5 0 99,93 1,87
23 16.12.2017 08:00 8 0 99,93 1,84
24 16.12.2017 07:30 8,5 0 99,93 2
25 16.12.2017 07:00 4 0 99,63 2,03
26 16.12.2017 06:30 3 0 99,93 1,75
27 16.12.2017 06:00 4 0 99,93 1,71
28 16.12.2017 05:30 4 0 99,93 1,81
29 16.12.2017 05:00 5 0 99,93 1,98
30 16.12.2017 04:30 5 0 99,85 2,03
31 16.12.2017 04:00 7 0,2 99,8 2,17
32 16.12.2017 03:30 9 0,2 99,93 2,2
33 16.12.2017 03:00 5 0 98,19 2,27
34 16.12.2017 02:30 5 0 90,38 2,49
35 16.12.2017 02:00 6 0 99,88 2,3
36 16.12.2017 01:30 4 0 99,93 2,37
37 16.12.2017 01:00 4 0 99,85 2,56
38 16.12.2017 00:30 4 0 99,93 2,61
39 16.12.2017 00:00 8 0 99,05 2,81
40 15.12.2017 23:30 5 0 99,93 2,81
41 15.12.2017 23:00 2 0 99,93 2,59
42 15.12.2017 22:30 2 0 99,93 2,66
43 15.12.2017 22:00 2 0 99,93 2,66
44 15.12.2017 21:30 2 0 99,93 2,69
45 15.12.2017 21:00 3 0,2 99,93 2,69
46 15.12.2017 20:30 4 0,2 99,93 2,88
47 15.12.2017 20:00 4 0,2 99,93 2,88
© 2011 Ministrstvo za kmetijstvo, gozdarstvo in prehrano. Vse pravice pridržane.